Dewpoint
32 40 43 46 45 43 40 42 44 44 44 43 43 42 43 45 43 42 43 43 43 41 41 41 41 43 42 42 42 43 44 43 45 44 44 45 47 47 48 46 44 42 43
36 41 44 43 43 41 41 43 43 43 43 44 44 44 44 45 43 43 41 42 42 41 39 40 40 41 41 41 42 43 43 43 45 43 43 39 41 43 43 48 45 43 44
35 40 42 42 41 42 42 43 44 43 44 45 44 44 44 42 41 41 40 41 40 41 41 40 39 40 41 40 41 42 43 42 43 45 42 38 37 40 42 43 43 41 41
36 40 40 40 40 41 43 43 43 41 41 43 41 41 39 38 41 41 40 40 40 39 40 40 39 39 39 39 40 40 42 43 41 43 43 43 43 40 38 42 41 40 39
37 39 40 40 41 41 43 42 41 41 40 40 40 40 39 40 41 39 38 38 39 39 39 39 38 38 39 39 38 39 40 42 41 42 43 43 43 44 43 38 37 38 39
38 39 40 41 41 41 41 41 40 39 39 40 39 39 39 39 39 37 37 38 39 39 38 38 38 38 38 37 37 38 38 39 39 40 41 41 39 39 39 38 37 37 38
38 40 40 41 41 41 41 40 39 39 39 39 39 38 38 39 37 37 38 37 37 38 39 38 38 37 37 37 36 36 36 36 36 37 37 39 39 41 40 40 38 37 37
36 38 40 41 41 41 41 40 39 38 38 38 38 38 38 38 38 38 38 38 38 38 38 38 36 34 34 34 34 34 35 35 36 35 36 36 36 38 39 39 38 34 36
36 37 37 39 39 40 41 41 40 39 39 38 38 37 37 38 38 38 38 38 38 37 37 35 31 29 30 30 30 30 29 32 34 34 36 35 36 37 37 37 38 36 32
32 31 32 33 35 37 38 39 41 39 38 38 37 36 36 37 37 37 37 37 37 37 36 31 27 27 27 27 27 28 28 28 31 30 31 31 33 35 36 36 36 37 36
30 31 31 31 32 33 35 37 39 39 37 37 36 36 36 36 37 37 37 37 37 36 30 26 25 25 25 25 25 25 25 25 26 26 26 27 28 30 33 35 35 35 35
32 32 32 32 32 32 33 36 37 37 37 36 35 35 35 36 36 36 36 36 34 30 25 24 23 23 24 24 23 24 24 24 24 25 25 25 23 28 27 30 33 34 34
32 32 32 32 31 31 31 32 33 35 34 34 33 33 32 31 30 30 29 29 29 26 23 22 22 22 23 23 23 23 23 24 24 24 25 25 25 27 26 26 27 31 31
31 31 30 30 30 30 31 31 30 30 31 31 30 30 29 28 28 27 26 25 24 23 23 23 23 24 23 24 24 24 23 23 23 24 26 25 26 26 28 27 27 25 27
30 30 30 29 29 28 28 28 29 30 30 30 30 30 30 30 30 30 29 28 27 25 25 24 24 25 25 24 25 27 28 28 28 29 28 28 29 31 31 27 27 27 28
30 30 29 29 28 26 25 25 25 26 24 24 24 26 26 26 27 27 27 27 27 28 27 27 28 29 27 31 35 34 33 32 32 31 31 31 32 33 34 35 36 36 33
30 30 29 29 29 27 25 24 23 23 21 20 20 22 24 24 24 25 24 23 24 26 25 26 27 27 28 32 34 34 33 33 32 32 31 30 28 31 29 31 32 32 34
31 31 31 30 30 28 24 22 21 19 19 17 18 19 22 22 23 23 22 22 21 22 23 23 25 26 26 30 31 32 31 32 32 31 30 30 29 29 29 28 27 27 27
32 31 32 31 28 23 24 21 15 16 17 17 18 19 20 21 21 22 21 21 21 21 22 23 25 24 24 28 30 30 28 29 29 28 28 29 28 30 32 31 31 30 30
32 31 30 27 21 16 19 18 15 14 15 17 17 19 21 22 22 22 21 21 21 20 21 22 23 25 24 28 29 28 25 25 26 27 28 32 31 33 34 32 32 31 30
27 25 20 17 17 15 14 14 14 14 15 18 19 19 20 21 21 21 21 20 19 19 20 20 21 21 22 22 28 29 25 25 25 26 27 28 32 33 32 32 30 31 32
26 20 17 15 15 15 14 15 15 17 18 18 18 17 18 17 17 21 21 20 19 19 19 20 20 21 21 25 27 29 29 29 26 26 27 28 32 32 32 31 32 31 32
18 18 16 16 17 17 17 16 16 16 16 15 15 15 15 16 18 20 20 19 18 19 19 18 19 20 21 22 27 29 30 30 27 27 28 31 31 32 31 32 31 31 30
16 17 17 18 18 18 17 16 16 16 15 15 16 16 17 19 20 19 19 19 18 18 19 19 20 21 23 24 25 25 26 29 28 29 28 30 31 32 31 31 31 30 30
19 19 19 18 18 18 17 17 17 17 17 17 18 18 19 20 20 19 19 18 18 20 19 21 23 26 27 27 29 30 30 30 31 31 32 31 28 28 28 28 29 30 30
19 17 17 17 17 18 18 18 19 19 19 19 20 21 21 21 21 20 20 24 25 27 27 28 28 27 29 29 29 30 30 30 30 28 31 30 30 30 28 28 28 29 30
Lifted_Index
8 9 9 8 8 8 8 10 11 12 12 13 13 13 13 13 13 14 14 14 14 14 14 14 14 14 14 14 14 14 14 13 13 12 11 9 8 7 6 6 6 6 7
8 9 9 8 8 8 9 10 11 12 12 13 13 13 13 13 13 14 14 14 14 13 13 14 14 14 14 14 14 14 14 13 13 13 12 11 9 8 8 8 7 8 8
8 8 9 9 9 9 10 11 11 12 12 13 13 13 13 13 13 13 13 13 13 13 13 14 14 14 14 14 14 15 14 14 13 13 13 12 11 11 11 10 10 10 10
8 9 9 9 9 10 10 11 11 11 12 13 13 13 13 13 13 13 13 13 13 13 14 14 14 15 15 15 15 15 15 14 14 13 13 13 12 12 12 12 12 12 12
9 9 9 9 10 10 10 11 11 12 13 13 13 13 13 13 12 13 13 13 13 14 14 14 15 15 15 15 15 15 15 15 14 14 14 13 13 12 12 12 13 13 13
9 9 9 9 10 10 10 11 11 12 13 13 13 12 12 12 12 13 13 13 13 13 14 14 14 14 14 14 15 15 15 15 15 15 14 14 13 13 13 12 13 13 14
8 9 9 9 9 10 10 11 11 12 13 13 12 12 12 12 12 12 12 12 13 13 13 14 14 14 14 14 14 14 14 14 14 14 15 14 14 14 14 13 13 13 13
8 9 9 9 10 10 10 11 11 12 12 12 12 12 12 12 12 12 12 12 13 13 13 14 14 14 13 13 13 13 14 14 14 14 14 15 15 15 15 15 14 13 13
8 9 9 9 10 10 11 11 11 12 12 12 12 12 12 12 12 12 12 12 13 13 13 14 14 13 13 12 12 12 12 13 13 13 14 14 15 16 16 16 15 14 13
9 9 9 10 10 10 10 11 11 11 12 12 11 11 11 11 12 12 12 12 12 13 13 13 13 13 12 12 11 11 11 11 12 12 13 13 14 15 16 16 16 16 16
9 9 9 10 10 10 10 10 10 10 11 11 11 11 11 11 11 11 12 12 12 12 12 12 12 12 12 12 11 11 10 10 10 11 11 12 13 14 15 16 16 17 17
9 9 9 10 10 10 10 10 10 10 10 10 10 10 10 10 10 11 11 11 12 12 12 12 12 11 11 11 11 10 10 9 10 10 11 11 12 13 14 15 15 16 17
9 9 10 10 10 10 10 10 10 10 9 9 9 9 9 10 10 10 10 10 11 11 11 11 10 10 10 10 10 10 9 9 10 10 11 11 12 12 13 14 15 16 16
10 10 10 10 10 10 10 10 10 10 9 9 9 9 9 9 9 9 10 10 10 10 10 10 10 10 10 10 10 10 10 10 10 11 11 11 12 13 13 14 14 15 15
10 10 10 10 10 10 11 11 11 11 10 10 10 10 10 11 11 11 11 11 11 12 12 11 11 11 10 10 10 10 10 11 11 11 12 12 13 13 13 14 14 14 14
10 10 10 10 10 11 11 11 11 12 12 13 13 13 14 14 14 14 14 14 14 14 14 14 13 12 11 11 11 11 11 11 11 12 12 12 13 13 13 13 13 13 13
10 10 10 10 10 11 11 12 13 14 15 15 15 16 16 16 16 15 15 15 15 15 15 14 14 13 12 12 11 11 11 11 11 12 12 12 13 13 12 12 13 13 13
10 10 10 11 11 12 13 14 15 16 16 16 16 17 16 16 16 15 15 15 15 15 14 14 13 13 13 12 12 11 10 11 11 11 11 12 12 12 11 11 12 12 12
10 10 11 12 13 14 15 16 17 17 17 17 17 17 16 16 15 15 14 14 13 13 13 13 13 13 12 12 11 10 10 10 10 10 11 11 11 10 10 10 10 10 10
10 10 11 12 14 16 17 17 17 17 17 17 17 16 16 15 15 14 13 12 12 12 12 12 12 12 12 11 10 10 9 9 9 9 9 9 9 8 8 8 8 8 8
10 11 12 14 15 17 17 17 16 16 17 17 17 16 16 15 14 13 12 11 11 11 12 11 11 11 10 10 9 9 8 8 8 8 8 8 7 6 6 6 6 6 6
11 12 14 15 16 17 17 16 16 16 17 17 17 16 15 14 13 12 11 11 11 11 10 10 10 9 9 8 8 7 7 7 7 7 7 6 6 5 5 4 4 4 4
14 15 16 16 16 16 16 16 16 16 17 17 16 15 14 13 12 11 11 10 10 9 9 8 8 8 8 7 7 7 6 6 6 6 6 6 5 5 5 4 4 3 3
16 16 16 16 16 16 16 16 16 16 16 15 14 13 12 11 11 10 9 9 8 8 8 8 7 7 7 7 7 7 6 6 6 5 5 5 5 5 4 4 4 3 3
16 16 15 15 15 15 16 15 15 15 14 13 12 11 11 10 10 9 9 8 8 8 7 7 7 7 7 7 7 6 6 6 5 5 5 5 5 4 4 4 4 4 4
15 15 15 15 15 15 15 15 14 13 12 11 10 10 10 10 9 9 9 8 8 8 7 7 7 7 7 7 7 6 6 6 5 5 5 4 4 4 4 4 4 4 3